Overview Statistics Trail Chart Weather Telemetry Raw packets
 

This is the latest recevied weather packets stored in our database for station/object W6MAF. If no packets are shown the sender has not sent any weather packets the latest 10 day(s).

<< 29 30 31 32 33 34 35 >>
Time Temp. Humidity Pressure Rain* Wind** Luminosity Snow
1788467178 24.44° C 11% - 0 mm 6.26 m/s, 204° - -
1788466880 24.44° C 11% - 0 mm 5.36 m/s, 210° - -
1788466583 24.44° C 12% - 0 mm 4.92 m/s, 221° - -
1788466285 24.44° C 12% - 0 mm 8.05 m/s, 226° - -
1788465987 24.44° C 12% - 0 mm 7.6 m/s, 257° - -
1788465686 24.44° C 12% - 0 mm 7.15 m/s, 236° - -
1788465389 24.44° C 12% - 0 mm 5.81 m/s, 243° - -
1788465091 23.89° C 12% - 0 mm 5.81 m/s, 273° - -
1788464793 23.89° C 13% - 0 mm 5.81 m/s, 215° - -
1788464495 23.89° C 13% - 0 mm 7.15 m/s, 224° - -
1788464198 23.89° C 13% - 0 mm 6.26 m/s, 205° - -
1788463897 23.89° C 13% - 0 mm 5.81 m/s, 232° - -
1788463599 23.89° C 13% - 0 mm 7.15 m/s, 221° - -
1788463301 23.89° C 13% - 0 mm 4.47 m/s, 203° - -
1788463004 23.33° C 13% - 0 mm 6.71 m/s, 246° - -
1788462706 23.33° C 13% - 0 mm 7.6 m/s, 235° - -
1788462408 23.33° C 14% - 0 mm 4.47 m/s, 210° - -
1788462107 22.78° C 14% - 0 mm 6.71 m/s, 215° - -
1788461810 22.78° C 14% - 0 mm 7.6 m/s, 239° - -
1788461512 22.78° C 15% - 0 mm 4.92 m/s, 217° - -
1788461214 22.78° C 14% - 0 mm 8.05 m/s, 219° - -
1788460920 22.78° C 14% - 0 mm 5.81 m/s, 226° - -
1788460619 22.22° C 15% - 0 mm 5.36 m/s, 191° - -
1788460318 22.22° C 15% - 0 mm 6.71 m/s, 201° - -
1788460020 22.22° C 15% - 0 mm 7.15 m/s, 208° - -

* Rain latest hour (hover to see other rain measurements)
** Current wind speed in m/s (hover to see current wind gust speed)